Location: Unspecified
(48.8656°N, 0.0000°E)
Time: 08:30:01
(UTC+00:00)

Tiros 1 despin weight - Visible Passes

Search period start: 26 June 2019 00:00
Search period end: 06 July 2019 00:00
Orbit: 595 x 642 km, 48.2° (Epoch: 25 June)

Date Brightness Start Highest point End Pass type
(mag) Time Alt. Az. Time Alt. Az. Time Alt. Az.
26 Jun ? 00:51:45 10° W 00:56:13 82° S 01:00:38 10° E visible
26 Jun ? 02:33:20 10° W 02:37:35 46° SSW 02:41:49 10° SE visible
26 Jun ? 21:45:52 10° SW 21:50:01 38° SSE 21:54:09 10° E visible
26 Jun ? 23:26:51 10° WSW 23:31:19 78° S 23:35:45 10° E visible
27 Jun ? 01:08:24 10° W 01:12:49 73° SSW 01:17:14 10° ESE visible
27 Jun ? 02:50:07 10° W 02:54:01 31° SSW 02:57:54 10° SSE visible
27 Jun ? 22:02:06 10° WSW 22:06:31 55° SSE 22:10:51 10° E visible
27 Jun ? 23:43:28 10° W 23:47:57 84° S 23:52:23 10° E visible
28 Jun ? 01:25:03 10° W 01:29:24 56° SSW 01:33:43 10° ESE visible
28 Jun ? 03:07:10 10° W 03:10:21 19° SW 03:13:30 10° S visible
28 Jun ? 22:18:35 10° WSW 22:23:04 71° SSE 22:27:30 10° E visible
29 Jun ? 00:00:07 10° W 00:04:34 79° S 00:09:01 10° ESE visible
29 Jun ? 01:41:45 10° W 01:45:53 39° SSW 01:50:00 10° SE visible
29 Jun ? 20:54:00 10° SW 20:58:18 45° SSE 21:02:34 10° E visible
29 Jun ? 22:35:11 10° W 22:39:41 82° S 22:44:08 10° E visible
30 Jun ? 00:16:45 10° W 00:21:11 66° SSW 00:25:34 10° ESE visible
30 Jun ? 01:58:36 10° W 02:02:16 26° SW 02:05:55 10° SSE visible
30 Jun ? 21:10:22 10° WSW 21:14:50 62° SSE 21:19:15 10° E visible
30 Jun ? 22:51:50 10° W 22:56:19 83° S 23:00:46 10° E visible
01 Jul ? 00:33:25 10° W 00:37:43 49° SSW 00:40:12 23° SE visible
01 Jul ? 02:15:55 10° WSW 02:17:04 14° WSW 02:17:04 14° WSW visible
01 Jul ? 21:26:55 10° WSW 21:31:25 77° S 21:35:53 10° E visible
01 Jul ? 23:08:28 10° W 23:12:57 75° S 23:17:00 12° ESE visible
02 Jul ? 00:50:10 10° W 00:53:58 33° SW 00:53:58 33° SW visible
02 Jul ? 21:43:31 10° W 21:48:03 84° S 21:52:31 10° E visible
02 Jul ? 23:25:07 10° W 23:29:31 59° SSW 23:31:36 29° SE visible
03 Jul ? 01:07:10 10° W 01:08:36 16° WSW 01:08:36 16° WSW visible
03 Jul ? 22:00:10 10° W 22:04:41 81° S 22:09:09 10° E visible
03 Jul ? 23:41:48 10° W 23:46:01 42° SSW 23:46:33 40° S visible
04 Jul ? 22:16:49 10° W 22:21:18 69° SSW 22:24:40 17° ESE visible
04 Jul ? 23:58:38 10° W 00:01:41 26° SW 00:01:41 26° SW visible
05 Jul ? 20:51:52 10° W 20:56:25 84° S 21:00:53 10° E visible
05 Jul ? 22:33:28 10° W 22:37:50 52° SSW 22:39:54 28° SE visible
